Location: Burbank
(38.7788°N, 114.0429°W)
Time: 19:54:33
(UTC+00:00)

Vanguard 2 - Pass Details

Date: 16 May 2026
Orbit: 553 x 2894 km, 32.9° (Epoch: 6 June)

Event Time Altitude Azimuth Distance (km) Brightness Sun altitude
Rises 06:08:35 0° 194° (SSW) 5,706 - -28.9°
Reaches altitude 10° 06:13:17 10° 181° (S) 5,037 - -29.2°
Maximum altitude 06:24:04 23° 136° (SE) 4,524 - -29.9°
Exits shadow 06:29:04 20° 115° (ESE) 4,836 11.2 -30.2°
Drops below altitude 10° 06:36:04 10° 93° (E) 5,701 11.8 -30.6°
Sets 06:41:47 0° 81° (E) 6,622 12.3 -30.9°
